[[[{"header":{"parameterUnit":"kt","parameterCategory":2,"dx":1,"dy":1,"la1":30.253999710083008,"la2":30.299108505249023,"lo1":-89.0895004272461,"lo2":-89.04439544677734,"nx":28,"ny":28,"refTime":"2022-10-26T21:00:00:Z","depth":0,"parameterNumber":1,"parameterNumberName":"U-component_of_WINDS"},"data":[3.3349,3.3409,3.341,3.348,3.3492,3.3541,3.3558,3.3582,3.36,3.366,3.3695,3.3702,3.3723,3.3766,3.3805,3.3808,3.3825,3.3848,3.3848,3.3744,3.373,3.3717,3.3702,3.3851,3.3851,3.3956,3.3957,3.3957,3.3279,3.3291,3.3327,3.3362,3.3394,3.3373,3.34,3.3428,3.3473,3.3496,3.3529,3.3582,3.3624,3.3636,3.3677,3.3708,3.3702,3.372,3.3719,3.3723,3.3612,3.3596,3.3725,3.3725,3.3725,3.3725,3.3725,3.3725,3.3152,3.3187,3.3208,3.3247,3.3264,3.3288,3.3323,3.3329,3.3365,3.3406,3.3398,3.3449,3.3472,3.3521,3.3537,3.3579,3.3558,3.3579,3.3584,3.359,3.3598,3.3453,3.3585,3.3585,3.3584,3.3584,3.3584,0,3.3059,3.3056,3.3089,3.3123,3.3151,3.3178,3.3202,3.3223,3.3216,3.3247,3.3291,3.3316,3.3367,3.341,3.3447,3.346,3.3442,3.3439,3.3454,3.346,3.3461,3.3464,3.3286,3.3435,3.3434,3.3433,3.3432,3.3432,3.2933,3.2973,3.2992,3.3016,3.3028,3.3066,3.3089,3.308,3.3105,3.3134,3.3167,3.3208,3.324,3.3312,3.3319,3.3358,3.335,3.3408,3.3356,3.336,3.3355,3.3353,3.3359,3.3418,3.342,3.3421,3.3423,0,3.2863,3.286,3.2921,3.2936,3.2941,3.2984,3.2998,3.3033,3.3034,3.3083,3.3094,3.3097,3.3141,3.3138,3.3187,3.3185,3.3263,3.3252,3.3256,3.3254,3.3308,3.3304,3.3476,3.3499,3.3342,3.3343,3.3344,0,3.2756,3.2808,3.2801,3.2836,3.2895,3.2883,3.2942,3.2949,3.2966,3.3004,3.2981,3.3018,3.3008,3.3046,3.3043,3.3105,3.3113,3.3116,3.3115,3.3119,3.312,3.3134,3.3128,3.3107,3.3106,3.3105,3.3104,0,3.2648,3.2703,3.276,3.2773,3.2792,3.282,3.283,3.2848,3.287,3.2899,3.2914,3.2947,3.2967,3.2995,3.299,3.2955,3.3064,3.3015,3.3068,3.3068,3.3093,3.3092,3.3243,3.3103,3.3103,3.3103,3.3102,0,3.256,3.2586,3.2669,3.2685,3.27,3.2738,3.2769,3.28,3.2821,3.2821,3.2843,3.2827,3.2878,3.283,3.2902,3.2858,3.288,3.2886,3.289,3.2895,3.2843,3.2931,3.3073,3.309,3.29,3.2899,3.2897,0,3.244,3.2521,3.2509,3.2588,3.2624,3.2596,3.2638,3.2655,3.2657,3.2691,3.2693,3.2731,3.2694,3.2706,3.2741,3.2746,3.2803,3.2738,3.2791,3.2793,3.2789,3.2919,3.2942,3.3042,3.2875,3.2878,3.2879,0,3.2346,3.2366,3.238,3.2394,3.2412,3.2442,3.249,3.2523,3.2546,3.2566,3.2608,3.2658,3.2634,3.2652,3.2642,3.2679,3.2765,3.2648,3.2648,3.2671,3.2862,3.2885,3.2901,3.275,3.2753,3.2755,3.2862,0,3.222,3.2258,3.2295,3.2323,3.2345,3.2392,3.2385,3.2409,3.2397,3.2397,3.2456,3.2468,3.2502,3.2518,3.2506,3.259,3.2576,3.2548,3.2503,3.2587,3.2622,3.2637,3.2451,3.2449,3.2448,3.2447,0,0,3.2107,3.216,3.2144,3.2187,3.2205,3.2172,3.2224,3.2237,3.2264,3.2278,3.2252,3.2325,3.2336,3.2408,3.2434,3.2446,3.2462,3.2431,3.2546,3.2557,3.2567,3.2605,3.262,3.2445,3.2445,3.2444,3.2444,0,3.206,3.2067,3.2116,3.2129,3.2146,3.2143,3.2155,3.2167,3.2169,3.2224,3.2197,3.2231,3.2288,3.2304,3.2319,3.2422,3.2401,3.2433,3.2492,3.2534,3.2547,3.2558,3.2598,3.2612,3.2441,3.2441,3.2441,0,3.1967,3.1975,3.1996,3.2031,3.2042,3.2079,3.2029,3.2069,3.2097,3.2059,3.2114,3.212,3.2139,3.2206,3.2236,3.2213,3.2347,3.2301,3.2309,3.2312,3.2353,3.2369,3.2382,3.2205,3.2204,3.2203,0,0,3.1927,3.196,3.1964,3.202,3.2029,3.2023,3.2041,3.203,3.2046,3.2053,3.2059,3.2077,3.211,3.2132,3.2163,3.2237,3.2241,3.2272,3.2284,3.2293,3.2301,3.2345,3.236,3.22,3.22,3.22,0,0,3.1908,3.1914,3.1897,3.1961,3.1977,3.1984,3.202,3.2,3.2026,3.202,3.2003,3.2007,3.2069,3.2075,3.2036,3.2147,3.2101,3.211,3.2141,3.2155,3.2165,3.2163,3.1986,0,0,0,0,0,3.1854,3.1913,3.1898,3.1907,3.195,3.1993,3.1998,3.1985,3.1954,3.1982,3.1985,3.1959,3.2051,3.2016,3.2026,3.207,3.2162,3.2168,3.2175,3.2231,3.2246,3.2258,0,0,0,0,0,0,3.1858,3.1869,3.1896,3.1907,3.1916,3.199,3.1935,3.1933,3.195,3.1945,3.1959,3.1959,3.1949,3.201,3.2019,3.2061,3.1983,3.2164,3.217,3.2175,3.2236,3.2248,3.2258,0,0,0,0,0,3.1861,3.187,3.1941,3.1906,3.1914,3.191,3.1932,3.193,3.1944,3.1946,3.1945,3.1932,3.1951,3.1958,3.2015,3.2057,3.1976,3.198,3.2168,3.2173,3.2177,3.2242,0,0,0,0,0,0,3.1863,3.1869,3.1942,3.1944,3.1881,3.1906,3.1909,3.1928,3.1943,3.1943,3.1917,3.1912,3.1953,3.1958,3.1963,3.2057,3.1971,3.1974,3.1977,3.2172,3.2175,3.2178,0,0,0,0,0,0,3.1864,3.1871,3.1943,3.1913,3.1912,3.1902,3.1905,3.1951,3.1944,3.1914,3.191,3.1915,3.1944,3.1958,3.1962,3.2034,3.1967,3.197,3.1973,3.1974,3.2175,3.2177,0,0,0,0,0,0,3.1866,3.1872,3.1913,3.1912,3.191,3.1933,3.1942,3.1987,3.1917,3.1914,3.1911,3.1908,3.1946,3.1949,3.1962,3.2032,3.2034,3.1967,3.1969,3.1971,3.1972,0,0,0,0,0,0,0,3.1869,3.1831,3.193,3.191,3.1909,3.1964,3.1964,3.1965,3.1917,3.1914,3.1911,3.1909,3.1947,3.1951,3.1954,3.2031,0,0,3.1966,3.1968,0,0,0,0,0,0,0,0,3.1829,3.1831,3.193,3.193,3.1931,3.1964,3.1964,3.1965,3.1916,3.1914,3.1912,3.191,3.1948,3.1951,3.1954,0,0,0,0,0,0,0,0,0,0,0,0,0,0,0,3.193,3.193,0,3.1964,3.1964,3.1964,3.1916,3.1914,3.1912,3.1911,3.1949,3.1951,3.1954,0,0,0,0,0,0,0,0,0,0,0,0,0,0,0,0,0,0,0,0,0,0,0,0,0,0,0,0,0,0,0,0,0,0,0,0,0,0,0,0,0,0,0,0,0,0,0,0,0,0,0,0,0,0,0,0,0,0,0,0,0,0,0,0,0,0,0,0,0]}],[{"header":{"parameterUnit":"kt","parameterCategory":2,"dx":1,"dy":1,"la1":30.253999710083008,"la2":30.299108505249023,"lo1":-89.0895004272461,"lo2":-89.04439544677734,"nx":28,"ny":28,"refTime":"2022-10-26T21:00:00:Z","depth":0,"parameterNumber":2,"parameterNumberName":"V-component_of_WINDS"},"data":[-6.237,-6.2414,-6.2462,-6.2534,-6.2588,-6.2646,-6.2681,-6.2732,-6.2783,-6.2856,-6.2906,-6.2956,-6.3025,-6.3095,-6.315,-6.3171,-6.3191,-6.3175,-6.3202,-6.3235,-6.3243,-6.325,-6.3244,-6.3179,-6.3179,-6.3161,-6.3161,-6.316,-6.2398,-6.2453,-6.2504,-6.2586,-6.263,-6.2677,-6.2744,-6.2778,-6.2827,-6.289,-6.2941,-6.3007,-6.3065,-6.314,-6.3203,-6.3224,-6.3247,-6.3237,-6.3236,-6.3246,-6.3284,-6.3277,-6.3218,-6.3218,-6.3218,-6.3218,-6.3218,-6.3218,-6.2462,-6.2485,-6.2562,-6.2618,-6.2671,-6.2725,-6.2756,-6.2817,-6.2866,-6.2938,-6.2982,-6.3037,-6.3107,-6.3203,-6.3246,-6.329,-6.3308,-6.331,-6.3311,-6.3311,-6.3305,-6.3329,-6.3302,-6.3302,-6.3302,-6.3303,-6.3303,0,-6.2523,-6.2561,-6.2612,-6.2678,-6.272,-6.2774,-6.2832,-6.2852,-6.2944,-6.2979,-6.3036,-6.3075,-6.3153,-6.321,-6.3277,-6.3321,-6.3368,-6.3377,-6.3379,-6.3359,-6.3334,-6.3349,-6.341,-6.3376,-6.3377,-6.3377,-6.3378,-6.3378,-6.2591,-6.2612,-6.2713,-6.2742,-6.2785,-6.283,-6.2867,-6.2946,-6.2981,-6.3062,-6.3077,-6.3135,-6.3185,-6.3265,-6.3332,-6.3389,-6.3411,-6.3394,-6.342,-6.3402,-6.3413,-6.3411,-6.3414,-6.3387,-6.3386,-6.3385,-6.3384,0,-6.2626,-6.2701,-6.2747,-6.2843,-6.2868,-6.2885,-6.2968,-6.2993,-6.3048,-6.309,-6.3104,-6.3189,-6.3241,-6.3312,-6.3383,-6.3418,-6.3448,-6.3469,-6.3427,-6.3435,-6.3427,-6.3427,-6.3388,-6.3388,-6.3455,-6.3455,-6.3454,0,-6.2713,-6.2736,-6.2846,-6.2868,-6.2898,-6.2976,-6.3002,-6.3052,-6.3112,-6.3146,-6.3212,-6.3242,-6.3327,-6.3367,-6.3418,-6.3455,-6.3468,-6.3497,-6.351,-6.3491,-6.3487,-6.3508,-6.3511,-6.3537,-6.3537,-6.3537,-6.3537,0,-6.2759,-6.2842,-6.288,-6.2911,-6.3013,-6.3029,-6.3072,-6.3139,-6.3172,-6.3226,-6.3249,-6.3305,-6.3336,-6.3378,-6.3444,-6.3458,-6.349,-6.3523,-6.3519,-6.3518,-6.352,-6.3519,-6.3469,-6.3537,-6.3538,-6.3538,-6.3538,0,-6.2839,-6.2894,-6.2936,-6.3024,-6.3042,-6.3065,-6.3128,-6.3163,-6.3229,-6.3263,-6.3306,-6.3356,-6.3393,-6.3422,-6.3474,-6.3476,-6.3502,-6.3533,-6.3534,-6.354,-6.357,-6.3533,-6.3478,-6.3475,-6.3549,-6.3549,-6.3549,0,-6.2873,-6.2933,-6.3001,-6.3037,-6.3075,-6.3148,-6.3175,-6.323,-6.3278,-6.3317,-6.3369,-6.341,-6.3446,-6.3469,-6.3485,-6.354,-6.3538,-6.3542,-6.3595,-6.3596,-6.3577,-6.3528,-6.3502,-6.3483,-6.3551,-6.3551,-6.3551,0,-6.2906,-6.303,-6.3031,-6.307,-6.3155,-6.3185,-6.3216,-6.3275,-6.3297,-6.335,-6.3377,-6.3435,-6.3467,-6.3501,-6.3546,-6.356,-6.3542,-6.3589,-6.3592,-6.3579,-6.3557,-6.3534,-6.353,-6.3569,-6.3569,-6.3569,-6.3553,0,-6.3015,-6.3052,-6.3059,-6.3138,-6.3172,-6.3197,-6.3272,-6.3298,-6.3341,-6.3389,-6.3429,-6.3488,-6.3544,-6.3557,-6.3596,-6.3604,-6.3613,-6.3644,-6.3675,-6.3642,-6.3638,-6.3636,-6.3675,-6.3677,-6.3678,-6.3679,0,0,-6.3028,-6.3083,-6.3153,-6.3185,-6.3218,-6.3291,-6.3311,-6.3351,-6.3429,-6.345,-6.3469,-6.3558,-6.3604,-6.3644,-6.3639,-6.366,-6.3669,-6.3676,-6.3657,-6.3654,-6.3652,-6.3647,-6.3644,-6.3681,-6.3681,-6.3681,-6.3682,0,-6.3082,-6.3131,-6.315,-6.3196,-6.3265,-6.3316,-6.332,-6.34,-6.3432,-6.347,-6.3527,-6.3558,-6.3624,-6.3667,-6.3697,-6.3674,-6.3713,-6.3685,-6.365,-6.3666,-6.3661,-6.3658,-6.3652,-6.3648,-6.3685,-6.3684,-6.3684,0,-6.3129,-6.319,-6.3206,-6.3284,-6.3329,-6.3363,-6.3417,-6.3449,-6.3475,-6.3547,-6.3583,-6.3625,-6.3686,-6.3713,-6.3727,-6.3744,-6.375,-6.3759,-6.3754,-6.3756,-6.3774,-6.3769,-6.3764,-6.3825,-6.3826,-6.3826,0,0,-6.3166,-6.32,-6.3287,-6.3301,-6.3325,-6.34,-6.3424,-6.3468,-6.3522,-6.3543,-6.3597,-6.3647,-6.3687,-6.3711,-6.3752,-6.377,-6.3789,-6.3773,-6.3767,-6.3761,-6.376,-6.3777,-6.3772,-6.3827,-6.3827,-6.3827,0,0,-6.3182,-6.3284,-6.3317,-6.3342,-6.3393,-6.3477,-6.3482,-6.3524,-6.3567,-6.3572,-6.3644,-6.366,-6.3686,-6.3723,-6.3726,-6.3764,-6.3794,-6.3794,-6.3738,-6.3731,-6.3725,-6.3714,-6.3785,0,0,0,0,0,-6.3274,-6.3272,-6.3301,-6.3316,-6.3411,-6.3462,-6.3475,-6.3535,-6.3557,-6.3561,-6.3612,-6.3652,-6.3741,-6.3745,-6.3758,-6.3753,-6.3837,-6.3835,-6.3834,-6.3766,-6.3758,-6.375,0,0,0,0,0,0,-6.3281,-6.3299,-6.3301,-6.3384,-6.3406,-6.3463,-6.3513,-6.353,-6.3559,-6.3566,-6.3641,-6.3654,-6.3705,-6.3742,-6.3753,-6.3747,-6.3782,-6.3836,-6.3835,-6.3833,-6.3763,-6.3756,-6.375,0,0,0,0,0,-6.3286,-6.3301,-6.3438,-6.3385,-6.3404,-6.3485,-6.3514,-6.3528,-6.3551,-6.3629,-6.3644,-6.3594,-6.3703,-6.3716,-6.3749,-6.3741,-6.3775,-6.3779,-6.3835,-6.3834,-6.3833,-6.376,0,0,0,0,0,0,-6.329,-6.3314,-6.3443,-6.3451,-6.3389,-6.3483,-6.3499,-6.3526,-6.3614,-6.3628,-6.3586,-6.3591,-6.3702,-6.3712,-6.3722,-6.3735,-6.3769,-6.3773,-6.3776,-6.3834,-6.3833,-6.3833,0,0,0,0,0,0,-6.3306,-6.332,-6.3447,-6.345,-6.3459,-6.348,-6.3495,-6.353,-6.3614,-6.3566,-6.3573,-6.3587,-6.3687,-6.3709,-6.3717,-6.3769,-6.3765,-6.3769,-6.3771,-6.3773,-6.3834,-6.3833,0,0,0,0,0,0,-6.3313,-6.3325,-6.3448,-6.3455,-6.3463,-6.3558,-6.3512,-6.3605,-6.3618,-6.3561,-6.3621,-6.3622,-6.3682,-6.3692,-6.3713,-6.3762,-6.3768,-6.3765,-6.3768,-6.3769,-6.3771,0,0,0,0,0,0,0,-6.3319,-6.3225,-6.3395,-6.3459,-6.3466,-6.3525,-6.3528,-6.353,-6.3619,-6.362,-6.3621,-6.3622,-6.3745,-6.3749,-6.3753,-6.3756,0,0,-6.3765,-6.3767,0,0,0,0,0,0,0,0,-6.3222,-6.3225,-6.3396,-6.3397,-6.3399,-6.3526,-6.3527,-6.3529,-6.3619,-6.362,-6.3621,-6.3621,-6.3746,-6.3749,-6.3752,0,0,0,0,0,0,0,0,0,0,0,0,0,0,0,-6.3396,-6.3397,0,-6.3526,-6.3527,-6.3529,-6.3619,-6.362,-6.362,-6.3621,-6.3747,-6.3749,-6.3752,0,0,0,0,0,0,0,0,0,0,0,0,0,0,0,0,0,0,0,0,0,0,0,0,0,0,0,0,0,0,0,0,0,0,0,0,0,0,0,0,0,0,0,0,0,0,0,0,0,0,0,0,0,0,0,0,0,0,0,0,0,0,0,0,0,0,0,0,0]}]]]